Weather History for Buffalo, WY

Change the Weather History Date:

Tuesday, January 8, 2013

  Actual Average Record
Temperature  
Mean Temperature 33 °F 28 °F  
Max Temperature 44 °F 39 °F 63 °F (2002)
Min Temperature 22 °F 17 °F 5 °F (2010)
Degree Days  
Heating Degree Days 32 37  
Month to date heating degree days 267 302  
Since 1 July heating degree days 2992 3349  
Cooling Degree Days 0 0  
Month to date cooling degree days 0 0  
Year to date cooling degree days 0 0  
Moisture  
Dew Point 16 °F    
Average Humidity 46    
Maximum Humidity 63    
Minimum Humidity 29    
Precipitation  
Precipitation 0.00 in 0.01 in 0.10 in (2005)
Month to date precipitation T 0.08  
Year to date precipitation T 0.08  
Sea Level Pressure  
Sea Level Pressure 29.93 in    
Wind  
Wind Speed 8 mph (West)    
Max Wind Speed 28 mph    
Max Gust Speed 40 mph    
Visibility 10 miles    
Events      
T = Trace of Precipitation, MM = Missing Value Source: NWS Daily Summary

Daily Weather History Graph

Daily Weather History Graph

Search for Another Location

Airport:

Trip Planner

Search our weather history database for the weather conditions in past years. The results will help you decide how hot, cold, wet, or windy it might be!

Date:

Astronomy

Jan. 08, 2013 Rise Set
Actual Time 7:42 AM MST 4:45 PM MST
Civil Twilight 7:09 AM MST 5:18 PM MST
Nautical Twilight 6:33 AM MST 5:54 PM MST
Astronomical Twilight 5:58 AM MST 6:29 PM MST
Moon 4:17 AM MST (1/8) 1:50 PM MST (1/8)
Length of Visible Light 10h 09m
Length of Day
9h 03m
Waning Crescent, 13% of the Moon is Illuminated
Jan 8
Waning Crescent
Jan 11
New
Jan 18
First Quarter
Jan 26
Full
Feb 3
Last Quarter

Hourly Weather History & Observations

Time (MST) Temp. Windchill Dew Point Humidity Pressure Visibility Wind Dir Wind Speed Gust Speed Precip Events Conditions
12:53 AM 33.1 °F - 19.9 °F 59% 29.70 in 10.0 mi Calm Calm - N/A   Overcast
1:53 AM 28.0 °F - 18.0 °F 66% 29.73 in 10.0 mi Calm Calm - N/A   Clear
2:53 AM 30.0 °F 24.1 °F 19.0 °F 64% 29.76 in 10.0 mi West 5.8 mph - N/A   Mostly Cloudy
3:53 AM 34.0 °F 29.8 °F 19.9 °F 56% 29.76 in 10.0 mi SW 4.6 mph - N/A   Overcast
4:53 AM 35.1 °F 29.3 °F 17.1 °F 48% 29.78 in 10.0 mi Variable 6.9 mph - N/A   Overcast
5:53 AM 35.1 °F 28.6 °F 15.1 °F 44% 29.80 in 10.0 mi NNW 8.1 mph - N/A   Scattered Clouds
6:53 AM 35.1 °F 29.3 °F 16.0 °F 46% 29.83 in 10.0 mi WNW 6.9 mph - N/A   Overcast
7:53 AM 30.9 °F 25.2 °F 15.1 °F 52% 29.86 in 10.0 mi WSW 5.8 mph - N/A   Mostly Cloudy
8:53 AM 33.1 °F 26.1 °F 17.1 °F 52% 29.87 in 10.0 mi WSW 8.1 mph - N/A   Mostly Cloudy
9:53 AM 39.0 °F 36.8 °F 17.1 °F 41% 29.87 in 10.0 mi WSW 3.5 mph - N/A   Mostly Cloudy
10:53 AM 43.0 °F 36.4 °F 14.0 °F 31% 29.87 in 10.0 mi NW 12.7 mph 24.2 mph N/A   Clear
12:53 PM 41.0 °F 35.2 °F 18.0 °F 40% 29.90 in 10.0 mi North 9.2 mph 19.6 mph N/A   Partly Cloudy
1:53 PM 42.1 °F 33.9 °F 14.0 °F 32% 29.94 in 10.0 mi WNW 17.3 mph 26.5 mph N/A   Partly Cloudy
2:53 PM 39.9 °F 30.2 °F 18.0 °F 41% 29.97 in 10.0 mi North 20.7 mph 26.5 mph N/A   Mostly Cloudy
3:53 PM 37.0 °F 26.4 °F 17.1 °F 44% 29.99 in 10.0 mi North 20.7 mph 34.5 mph N/A   Clear
4:53 PM 30.9 °F 24.3 °F 17.1 °F 57% 30.05 in 10.0 mi NNW 6.9 mph - N/A   Clear
5:53 PM 33.1 °F 24.9 °F 12.9 °F 43% 30.07 in 10.0 mi NNW 10.4 mph 23.0 mph N/A   Clear
6:53 PM 30.9 °F 26.2 °F 12.9 °F 47% 30.08 in 10.0 mi North 4.6 mph - N/A   Clear
7:53 PM 28.0 °F 24.2 °F 12.0 °F 51% 30.11 in 10.0 mi South 3.5 mph - N/A   Clear
8:53 PM 28.0 °F 21.7 °F 12.9 °F 53% 30.12 in 10.0 mi SSW 5.8 mph - N/A   Partly Cloudy
9:53 PM 28.9 °F 19.8 °F 14.0 °F 54% 30.09 in 10.0 mi SSW 10.4 mph - N/A   Clear
10:53 PM 25.0 °F 18.1 °F 12.0 °F 58% 30.08 in 10.0 mi South 5.8 mph - N/A   Clear
11:53 PM 24.1 °F 19.7 °F 12.0 °F 60% 30.06 in 10.0 mi SE 3.5 mph - N/A   Clear